This is the latest recevied weather packets stored in our database for station/object KB1RMA-4. If no packets are shown the sender has not sent any weather packets the latest 10 day(s).
| Time | Temp. | Humidity | Pressure | Rain* | Wind** | Luminosity | Snow |
|---|---|---|---|---|---|---|---|
| 1788434966 | 17.22° C | 96% | 1016 hPa | 4.83 mm | - | 13 W/m² | - |
| 1788434662 | 17.22° C | 96% | 1016.2 hPa | 4.32 mm | - | 13 W/m² | - |
| 1788434361 | 17.22° C | 96% | 1015.8 hPa | 2.29 mm | - | 13 W/m² | - |
| 1788434060 | 17.22° C | 96% | 1015.7 hPa | 2.29 mm | - | 17 W/m² | - |
| 1788433757 | 17.22° C | 95% | 1015.8 hPa | 2.29 mm | - | 14 W/m² | - |
| 1788433452 | 17.22° C | 95% | 1016.1 hPa | 4.83 mm | - | 5 W/m² | - |
| 1788433147 | 17.22° C | 95% | 1016.1 hPa | 2.29 mm | - | 3 W/m² | - |
| 1788432842 | 17.22° C | 94% | 1015.8 hPa | 0 mm | - | 10 W/m² | - |
| 1788432542 | 17.22° C | 94% | 1015.7 hPa | 4.32 mm | - | 4 W/m² | - |
| 1788432236 | 17.22° C | 94% | 1016 hPa | 15.49 mm | - | 6 W/m² | - |
| 1788431933 | 17.22° C | 93% | 1016 hPa | 13.72 mm | - | 3 W/m² | - |
| 1788431629 | 17.22° C | 93% | 1016 hPa | 2.29 mm | - | 0 W/m² | - |
| 1788431324 | 17.22° C | 92% | 1016 hPa | 0 mm | - | 0 W/m² | - |
| 1788431019 | 17.22° C | 92% | 1015.8 hPa | 6.6 mm | - | 0 W/m² | - |
| 1788430719 | 17.22° C | 92% | 1016 hPa | 6.6 mm | - | 0 W/m² | - |
| 1788430413 | 17.22° C | 91% | 1015.9 hPa | 4.83 mm | - | 0 W/m² | - |
| 1788430109 | 17.22° C | 91% | 1016 hPa | 7.11 mm | - | 0 W/m² | - |
| 1788429809 | 17.22° C | 91% | 1016.2 hPa | 4.83 mm | - | 0 W/m² | - |
| 1788429507 | 17.22° C | 90% | 1016 hPa | 8.89 mm | - | 0 W/m² | - |
| 1788429206 | 17.22° C | 90% | 1016.1 hPa | 6.6 mm | - | 0 W/m² | - |
| 1788428902 | 17.22° C | 90% | 1016.1 hPa | 0 mm | - | 0 W/m² | - |
| 1788428596 | 17.22° C | 90% | 1016.2 hPa | 0 mm | - | 0 W/m² | - |
| 1788428292 | 17.22° C | 90% | 1016.1 hPa | 0 mm | - | 0 W/m² | - |
| 1788427988 | 17.22° C | 89% | 1016.3 hPa | 2.29 mm | - | 0 W/m² | - |
| 1788427687 | 17.22° C | 89% | 1016.2 hPa | 4.83 mm | - | 0 W/m² | - |
* Rain latest hour (hover to see other rain measurements)
** Current wind speed in m/s (hover to see current wind gust speed)